Regional Weather Roundup
Issued by NWS

Home | Current Version | Previous Version | Text Only | Print | Product List | Glossary Off
Versions: 1 2 3 4 5 6 7 8 9 10 11 12 13 14 15 16 17 18 19 20 21 22 23 24 25 26 27 28 29 30 31 32 33 34 35 36 37 38 39 40 41 42 43 44 45 46 47 48 49 50

000
ASUS43 KIND 022309
RWRIN

WEATHER ROUNDUP FOR INDIANA
NATIONAL WEATHER SERVICE INDIANAPOLIS IN
700 PM EDT MON MAY 02 2016

NOTE: "FAIR" INDICATES FEW OR NO CLOUDS BELOW 12,000 FEET WITH NO
SIGNIFICANT WEATHER AND/OR OBSTRUCTIONS TO VISIBILITY.

* - STATION DOES NOT REPORT WEATHER SUCH AS PRECIPITATION OR FOG.

+ - STATION NOT QUALITY CONTROLLED BY THE NATIONAL WEATHER SERVICE.
    USE DATA WITH CAUTION...ESPECIALLY DEWPOINT AND RELATIVE
    HUMIDITY OBSERVATIONS.

INZ001>003-010>013-019-020-030000-
NORTHWEST INDIANA

CITY           SKY/WX    TMP DP  RH WIND       PRES   REMARKS
GARY /AIRPORT/ PTSUNNY   50  43  76 N10       30.03S
KNOX *+        CLOUDY    50  37  62 N7        30.00S
LA PORTE +     CLOUDY    51  42  71 N9        30.01S
MICHIGAN CITY+ CLOUDY    46  39  76 N3        30.02S
MONTICELLO +   CLOUDY    52  46  78 N7        29.98S
VALPARAISO     CLOUDY    49  39  68 N8        30.01S

$$

LMZ046-743>745-030000-
SOUTHERN LAKE MICHIGAN

STATION/POSITION TIME  TEMP    WIND        PRES    WAVE
                       AIR SEA DIR/SP/G            HT
                 (UTC) (F)     (DEG/KT/KT) (MB)    (FT)
BURNS HARBOR     2227   46      50/  8/ 11 1017.3S
MICHIGAN CITY    2200   45      20/  8/  9   N/A

$$

INZ004-005-014>016-021>024-030000-
NORTH CENTRAL INDIANA

CITY           SKY/WX    TMP DP  RH WIND       PRES   REMARKS
ELKHART        CLOUDY    52  48  87 NE7       30.01R
GOSHEN         CLOUDY    50  46  86 NE7       30.00R
LOGANSPORT +   CLOUDY    50  46  87 NE3       29.99S
PERU/GRISSOM   CLOUDY    51  51 100 N9        29.96F FOG
ROCHESTER +    CLOUDY    52  50  93 NE7       30.00S FOG
SOUTH BEND     CLOUDY    52  44  74 NE7       30.01S
WARSAW +       CLOUDY    50  45  81 NE5       30.00R

$$

INZ006>009-017-018-025>027-030000-
NORTHEAST INDIANA

CITY           SKY/WX    TMP DP  RH WIND       PRES   REMARKS
ANGOLA *+      CLOUDY    48  39  71 NE3       29.99S
AUBURN +       CLOUDY    50  46  87 NE5       30.00R
FORT WAYNE     CLOUDY    52  47  83 NE5       29.99S
HUNTINGTON +   DRIZZLE  N/A N/A N/A NE3       29.98S

$$

INZ028-029-035-036-043>045-051>053-030000-
WEST CENTRAL INDIANA

CITY           SKY/WX    TMP DP  RH WIND       PRES   REMARKS
LAFAYETTE      CLOUDY    52  47  83 N3        29.99R
TERRE HAUTE    CLOUDY    54  49  83 NW6       29.97F

$$

INZ030>032-037>040-046>048-054>057-064-065-030000-
CENTRAL INDIANA

CITY           SKY/WX    TMP DP  RH WIND       PRES   REMARKS
CP ATTERBURY + CLOUDY    57  48  72 NW7       29.95F
COLUMBUS       CLOUDY    57  54  88 NW9       29.95S
FRANKFORT +      N/A     52  52 100 N6        29.99S
GREENWOOD *+   CLOUDY    57  50  77 NW8       29.95F
INDIANAPOLIS   CLOUDY    56  49  77 NW8       29.94F
-EAGLE CREEK   CLOUDY    57  50  77 N6        29.95S
KOKOMO *+      CLOUDY    52  46  82 NE10      29.97S
MARION +       CLOUDY    51  49  92 N8        29.98S
SHELBYVILLE    CLOUDY    60  50  69 NW8       29.94R
ZIONSVILLE +   CLOUDY    53  51  94 N6        29.96F

$$

INZ033-034-041-042-049-050-058-059-030000-
EAST CENTRAL INDIANA

CITY           SKY/WX    TMP DP  RH WIND       PRES   REMARKS
MUNCIE         CLOUDY    55  49  80 NE9       29.96R

$$

INZ060-061-067>069-081>083-085>088-030000-
SOUTHWEST INDIANA

CITY           SKY/WX    TMP DP  RH WIND       PRES   REMARKS
EVANSVILLE     CLOUDY    59  49  69 NW10      29.97S
HUNTINGBURG *+ CLOUDY    57  48  72 NW9       29.96S
WASHINGTON +   CLOUDY    56  51  81 N9        29.96S

$$

INZ062-063-066-070>080-084-089>092-030000-
SOUTH CENTRAL AND SOUTHEAST INDIANA

CITY           SKY/WX    TMP DP  RH WIND       PRES   REMARKS
BLOOMINGTON    CLOUDY    56  48  74 VRB5      29.95S
MADISON *+     CLOUDY    61  46  59 NW5       29.95R
NORTH VERNON + CLOUDY    59  55  88 CALM      29.94S
SEYMOUR +      CLOUDY    63  48  59 NW8       29.94R

$$





USA.gov is the U.S. government's official web portal to all federal, state and local government web resources and services.